CW0234 Weather Reports


time (UTC)temp
C
wind
direction
speed
KPH
gust
KPH
rain 1hr
cm
rain 24hr
cm
rain mn
cm
humidity
%
barometer
mb
20260507015323 21 0 6.4 9.7 0.00 0.00 0.00 63 1016.6
20260507014820 21 168 4.8 4.8 0.00 0.00 0.00 62 1016.8
20260507014316 21 174 1.6 3.2 0.00 0.00 0.00 61 1017.0
20260507013812 21 289 4.8 8.0 0.00 0.00 0.00 60 1016.8
20260507013310 21 355 4.8 8.0 0.00 0.00 0.00 59 1016.8
20260507012807 22 338 3.2 4.8 0.00 0.00 0.00 59 1016.7
20260507012306 22 159 1.6 1.6 0.00 0.00 0.00 59 1016.6
20260507011800 21 348 3.2 8.0 0.00 0.00 0.00 59 1016.6
20260507011257 21 231 4.8 4.8 0.00 0.00 0.00 59 1016.6
20260507010756 22 188 4.8 4.8 0.00 0.00 0.00 59 1016.5
20260507010252 22 162 3.2 3.2 0.00 0.00 0.00 60 1016.4
20260507005750 22 354 4.8 8.0 0.00 0.00 0.00 57 1016.5
20260507005246 22 31 6.4 9.7 0.00 0.00 0.00 59 1016.5
20260507004743 22 163 3.2 4.8 0.00 0.00 0.00 57 1016.3
20260507004241 22 296 4.8 4.8 0.00 0.00 0.00 56 1016.3
20260507003737 22 301 6.4 9.7 0.00 0.00 0.00 55 1016.5
20260507003232 23 189 3.2 3.2 0.00 0.00 0.00 55 1016.2
20260507002728 23 317 6.4 8.0 0.00 0.00 0.00 55 1016.4
20260507002224 23 172 1.6 1.6 0.00 0.00 0.00 56 1016.3
20260507001721 23 184 1.6 3.2 0.00 0.00 0.00 54 1016.3
20260507001219 23 201 3.2 3.2 0.00 0.00 0.00 55 1016.4
20260507000715 23 294 4.8 9.7 0.00 0.00 0.00 55 1016.3
20260507000212 24 355 4.8 8.0 0.00 0.00 0.00 54 1016.1
20260506235708 24 172 3.2 3.2 0.00 0.00 0.00 53 1016.4
20260506235203 23 1 6.4 11.3 0.00 0.00 0.00 53 1016.2
20260506234700 24 131 3.2 4.8 0.00 0.00 0.00 53 1016.2
20260506234157 24 32 4.8 8.0 0.00 0.00 0.00 52 1016.3
20260506233655 24 231 6.4 9.7 0.00 0.00 0.00 52 1016.1
20260506233151 24 190 3.2 4.8 0.00 0.00 0.00 53 1016.2
20260506232648 25 294 6.4 9.7 0.00 0.00 0.00 52 1016.1
20260506232143 24 209 3.2 3.2 0.00 0.00 0.00 52 1016.3
20260506231640 24 356 4.8 9.7 0.00 0.00 0.00 52 1016.3
20260506231139 26 171 1.6 1.6 0.00 0.00 0.00 51 1016.4
20260506230635 25 167 1.6 1.6 0.00 0.00 0.00 51 1016.3
20260506230132 25 132 3.2 3.2 0.00 0.00 0.00 51 1016.3
20260506225629 24 19 6.4 8.0 0.00 0.00 0.00 52 1016.5
20260506225125 24 11 4.8 4.8 0.00 0.00 0.00 51 1016.5
20260506224622 25 23 12.9 14.5 0.00 0.00 0.00 51 1016.6
20260506224118 25 174 3.2 3.2 0.00 0.00 0.00 50 1016.6
20260506223615 25 342 6.4 9.7 0.00 0.00 0.00 50 1016.8
20260506223111 25 182 1.6 1.6 0.00 0.00 0.00 50 1016.7
20260506222608 25 166 4.8 8.0 0.00 0.00 0.00 50 1016.5
20260506222104 25 172 1.6 1.6 0.00 0.00 0.00 51 1016.5
20260506221602 25 149 4.8 8.0 0.00 0.00 0.00 50 1016.9
20260506221100 25 203 3.2 3.2 0.00 0.00 0.00 48 1017.0
20260506220556 25 183 3.2 3.2 0.00 0.00 0.00 49 1016.9
20260506220051 25 174 1.6 3.2 0.00 0.00 0.00 49 1017.3
20260506215548 25 183 1.6 3.2 0.00 0.00 0.00 49 1017.3
20260506215044 24 177 3.2 3.2 0.00 0.00 0.00 50 1017.3
20260506214541 25 242 4.8 9.7 0.00 0.00 0.00 49 1017.2
20260506214038 24 169 0.0 1.6 0.00 0.00 0.00 51 1017.5
20260506213536 23 167 1.6 1.6 0.00 0.00 0.00 53 1017.4
20260506213033 24 169 1.6 1.6 0.00 0.00 0.00 52 1017.6
20260506212530 24 169 1.6 3.2 0.00 0.00 0.00 51 1017.5
20260506212025 24 175 1.6 1.6 0.00 0.00 0.00 52 1017.8
20260506211521 23 167 1.6 3.2 0.00 0.00 0.00 53 1017.6
20260506211018 22 170 1.6 1.6 0.00 0.00 0.00 55 1017.9
20260506210515 23 339 6.4 9.7 0.00 0.00 0.00 53 1017.9
20260506210012 23 204 3.2 3.2 0.00 0.00 0.00 53 1017.9
20260506205508 23 179 0.0 1.6 0.00 0.00 0.00 54 1017.8
20260506205003 23 183 4.8 4.8 0.00 0.00 0.00 54 1018.0
20260506204502 23 190 3.2 3.2 0.00 0.00 0.00 54 1018.1
20260506203958 22 174 1.6 1.6 0.00 0.00 0.00 55 1018.1
20260506203456 22 165 0.0 0.0 0.00 0.00 0.00 56 1018.0
20260506202953 22 202 3.2 3.2 0.00 0.00 0.00 55 1018.2
20260506202450 22 183 3.2 3.2 0.00 0.00 0.00 57 1018.1
20260506201946 21 228 6.4 9.7 0.00 0.00 0.00 57 1018.3
20260506201444 22 150 0.0 1.6 0.00 0.00 0.00 56 1018.3
20260506200940 22 176 0.0 1.6 0.00 0.00 0.00 55 1018.2
20260506200437 22 169 3.2 3.2 0.00 0.00 0.00 56 1018.2
20260506195933 21 180 0.0 0.0 0.00 0.00 0.00 57 1018.3
20260506195430 21 175 0.0 1.6 0.00 0.00 0.00 59 1018.3
20260506194927 21 169 1.6 3.2 0.00 0.00 0.00 58 1018.4
20260506194424 21 173 0.0 1.6 0.00 0.00 0.00 58 1018.3
20260506193921 21 166 3.2 4.8 0.00 0.00 0.00 58 1018.4
20260506193418 20 168 1.6 1.6 0.00 0.00 0.00 60 1018.3
20260506192914 21 258 4.8 4.8 0.00 0.00 0.00 60 1018.6
20260506192411 21 335 4.8 8.0 0.00 0.00 0.00 60 1018.9
20260506191908 21 207 1.6 3.2 0.00 0.00 0.00 59 1018.6
20260506191405 20 161 1.6 3.2 0.00 0.00 0.00 60 1018.8
20260506190902 20 334 4.8 8.0 0.00 0.00 0.00 62 1018.7
20260506190358 20 188 3.2 3.2 0.00 0.00 0.00 63 1018.9
20260506185855 20 170 0.0 1.6 0.00 0.00 0.00 62 1018.9
20260506185352 20 178 1.6 1.6 0.00 0.00 0.00 62 1019.0
20260506184849 20 186 1.6 3.2 0.00 0.00 0.00 60 1019.0
20260506184346 20 172 0.0 1.6 0.00 0.00 0.00 62 1018.9
20260506183844 20 164 0.0 0.0 0.00 0.00 0.00 63 1019.0
20260506183338 20 17 1.6 4.8 0.00 0.00 0.00 63 1019.1
20260506182836 20 146 1.6 1.6 0.00 0.00 0.00 63 1019.1
20260506182333 18 159 1.6 1.6 0.00 0.00 0.00 65 1019.1
20260506181831 18 166 1.6 1.6 0.00 0.00 0.00 66 1019.1
20260506181329 18 201 1.6 3.2 0.00 0.00 0.00 66 1019.2
20260506180825 18 229 3.2 3.2 0.00 0.00 0.00 67 1019.3
20260506180321 18 182 1.6 1.6 0.00 0.00 0.00 67 1019.3
20260506175818 17 173 0.0 0.0 0.00 0.00 0.00 69 1019.3
20260506175315 17 174 0.0 0.0 0.00 0.00 0.00 68 1019.2
20260506174812 17 187 3.2 4.8 0.00 0.00 0.00 69 1019.1
20260506174309 18 176 0.0 1.6 0.00 0.00 0.00 68 1019.2
20260506173807 18 183 3.2 3.2 0.00 0.00 0.00 67 1019.4
20260506173303 18 178 1.6 1.6 0.00 0.00 0.00 67 1019.2
20260506172800 18 158 1.6 3.2 0.00 0.00 0.00 67 1019.1
20260506172257 18 199 3.2 3.2 0.00 0.00 0.00 67 1019.3
20260506171755 17 156 0.0 1.6 0.00 0.00 0.00 70 1019.2
20260506171251 17 168 1.6 1.6 0.00 0.00 0.00 72 1019.4
20260506170749 17 190 1.6 3.2 0.00 0.00 0.00 72 1019.1
20260506170245 16 181 1.6 1.6 0.00 0.00 0.00 73 1019.3
20260506165744 16 179 0.0 1.6 0.00 0.00 0.00 74 1019.5
20260506165241 16 162 1.6 3.2 0.00 0.00 0.00 74 1019.4
20260506164738 16 192 6.4 9.7 0.00 0.00 0.00 74 1019.4
20260506164235 17 179 0.0 1.6 0.00 0.00 0.00 73 1019.2
20260506163732 17 187 1.6 3.2 0.00 0.00 0.00 72 1019.3
20260506163226 16 171 0.0 1.6 0.00 0.00 0.00 75 1019.2
20260506162722 16 168 0.0 0.0 0.00 0.00 0.00 75 1019.4
20260506162220 16 174 0.0 0.0 0.00 0.00 0.00 75 1019.2
20260506161718 16 176 0.0 1.6 0.00 0.00 0.00 75 1019.3
20260506161215 16 176 1.6 1.6 0.00 0.00 0.00 75 1019.4
20260506160712 16 174 1.6 1.6 0.00 0.00 0.00 76 1019.4
20260506160209 15 173 0.0 0.0 0.00 0.00 0.00 77 1019.3
20260506155707 15 183 1.6 1.6 0.00 0.00 0.00 78 1019.4
20260506155204 15 179 1.6 1.6 0.00 0.00 0.00 78 1019.3
20260506153311 15 171 1.6 1.6 0.00 0.00 0.00 79 1019.2
20260506152808 15 169 0.0 0.0 0.00 0.00 0.00 79 1019.4
20260506152306 15 159 1.6 3.2 0.00 0.00 0.00 79 1019.2
20260506151805 15 175 0.0 0.0 0.00 0.00 0.00 80 1019.3
20260506151301 15 168 0.0 0.0 0.00 0.00 0.00 80 1019.3
20260506150757 15 173 0.0 0.0 0.00 0.00 0.00 80 1019.3
20260506150303 15 160 1.6 3.2 0.00 0.00 0.00 80 1019.5
20260506145751 15 173 0.0 0.0 0.00 0.00 0.00 81 1019.4
20260506145248 14 169 0.0 0.0 0.00 0.00 0.00 81 1019.5
20260506144745 14 174 0.0 0.0 0.00 0.00 0.00 81 1019.6
20260506144242 14 168 0.0 0.0 0.00 0.00 0.00 81 1019.4
20260506143740 14 173 0.0 1.6 0.00 0.00 0.00 82 1019.5
20260506143237 14 153 3.2 3.2 0.00 0.00 0.00 81 1019.3
20260506142736 14 173 0.0 0.0 0.00 0.00 0.00 82 1019.3
20260506142233 14 173 0.0 0.0 0.00 0.00 0.00 82 1019.3
20260506141731 13 164 1.6 1.6 0.00 0.00 0.00 82 1019.1
20260506141229 13 170 0.0 0.0 0.00 0.00 0.00 83 1019.2
20260506140726 13 172 0.0 0.0 0.00 0.00 0.00 83 1019.1
20260506140223 13 171 0.0 0.0 0.00 0.00 0.00 83 1019.2
20260506135720 13 171 0.0 0.0 0.00 0.00 0.00 83 1019.1
20260506135216 13 172 0.0 0.0 0.00 0.00 0.00 83 1019.1
20260506134713 13 174 0.0 0.0 0.00 0.00 0.00 84 1018.8
20260506134209 13 173 0.0 0.0 0.00 0.00 0.00 84 1018.7
20260506133707 13 175 0.0 0.0 0.00 0.00 0.00 84 1018.7
20260506133203 13 173 0.0 0.0 0.00 0.00 0.00 84 1018.6
20260506132701 13 172 0.0 0.0 0.00 0.00 0.00 84 1018.9
20260506132157 13 172 0.0 0.0 0.00 0.00 0.00 84 1018.6
20260506131655 13 172 0.0 0.0 0.00 0.00 0.00 84 1018.5
20260506131151 13 172 0.0 0.0 0.00 0.00 0.00 84 1018.5
20260506130648 13 172 0.0 0.0 0.00 0.00 0.00 83 1018.2
20260506130145 13 172 0.0 0.0 0.00 0.00 0.00 83 1018.4
20260506125643 13 172 0.0 0.0 0.00 0.00 0.00 83 1018.2
20260506125141 13 171 0.0 0.0 0.00 0.00 0.00 83 1018.4
20260506124639 13 171 0.0 0.0 0.00 0.00 0.00 83 1018.2
20260506124136 13 165 1.6 1.6 0.00 0.00 0.00 83 1018.5
20260506123633 13 173 0.0 0.0 0.00 0.00 0.00 83 1018.3
20260506123132 13 172 0.0 0.0 0.00 0.00 0.00 83 1018.3
20260506122628 13 171 0.0 0.0 0.00 0.00 0.00 83 1018.2
20260506122126 13 172 0.0 0.0 0.00 0.00 0.00 83 1018.3
20260506121624 13 170 1.6 1.6 0.00 0.00 0.00 82 1018.2
20260506121120 13 199 3.2 3.2 0.00 0.00 0.00 83 1018.0
20260506120618 13 173 0.0 1.6 0.00 0.00 0.00 83 1018.3
20260506120115 13 177 3.2 3.2 0.00 0.00 0.00 83 1018.2
20260506115614 13 176 1.6 1.6 0.00 0.00 0.00 84 1018.2
20260506115111 13 173 0.0 0.0 0.00 0.00 0.00 85 1018.1
20260506114608 13 171 1.6 1.6 0.00 0.00 0.00 84 1017.9
20260506114106 13 172 1.6 1.6 0.00 0.00 0.00 85 1017.9
20260506113604 13 170 0.0 0.0 0.00 0.00 0.00 85 1017.9
20260506113101 13 172 0.0 0.0 0.00 0.00 0.00 85 1017.9
20260506112557 13 176 0.0 0.0 0.00 0.00 0.00 84 1017.8
20260506112055 13 172 0.0 0.0 0.00 0.00 0.00 84 1017.8
20260506111553 13 183 0.0 0.0 0.00 0.00 0.00 84 1017.8
20260506111050 13 174 0.0 0.0 0.00 0.00 0.00 84 1017.9
20260506110548 13 171 0.0 0.0 0.00 0.00 0.00 84 1018.0
20260506110045 13 170 0.0 0.0 0.00 0.00 0.00 84 1017.8
20260506105541 13 165 0.0 0.0 0.00 0.00 0.00 84 1017.9
20260506105038 13 176 0.0 0.0 0.00 0.00 0.00 84 1017.8
20260506104536 13 173 0.0 0.0 0.00 0.00 0.00 84 1017.8
20260506104034 13 172 0.0 0.0 0.00 0.00 0.00 84 1017.6
20260506103531 13 185 1.6 1.6 0.00 0.00 0.00 84 1017.9
20260506103027 13 173 0.0 0.0 0.00 0.00 0.00 84 1017.9
20260506102526 13 178 0.0 1.6 0.00 0.00 0.00 83 1017.8
20260506102023 13 173 0.0 0.0 0.00 0.00 0.00 83 1017.6
20260506101519 13 175 0.0 0.0 0.00 0.00 0.00 83 1017.6
20260506101016 13 174 0.0 0.0 0.00 0.00 0.00 84 1017.5
20260506100515 13 173 0.0 0.0 0.00 0.00 0.00 83 1017.8
20260506100013 13 173 0.0 0.0 0.00 0.00 0.00 83 1017.8
20260506095511 13 173 0.0 0.0 0.00 0.00 0.00 83 1017.6
20260506095006 13 171 0.0 0.0 0.00 0.00 0.00 83 1017.8
20260506094505 13 171 0.0 0.0 0.00 0.00 0.00 83 1017.6
20260506094003 13 174 0.0 0.0 0.00 0.00 0.00 82 1017.6
20260506093501 13 178 0.0 0.0 0.00 0.00 0.00 82 1017.8
20260506092958 13 174 0.0 0.0 0.00 0.00 0.00 82 1017.5
20260506092456 13 175 0.0 0.0 0.00 0.00 0.00 82 1017.8
20260506091952 13 173 0.0 0.0 0.00 0.00 0.00 82 1017.6
20260506091450 13 172 0.0 0.0 0.00 0.00 0.00 82 1017.9
20260506090947 13 170 0.0 0.0 0.00 0.00 0.00 82 1017.5
20260506090445 13 171 0.0 0.0 0.00 0.00 0.00 82 1017.9
20260506085941 13 171 0.0 0.0 0.00 0.00 0.00 83 1017.8
20260506085438 13 172 0.0 0.0 0.00 0.00 0.00 82 1017.8
20260506084934 13 173 0.0 0.0 0.00 0.00 0.00 83 1017.6
20260506084432 13 174 0.0 0.0 0.00 0.00 0.00 82 1018.0
20260506083927 13 170 0.0 0.0 0.00 0.00 0.00 82 1017.5
20260506083425 13 170 0.0 0.0 0.00 0.00 0.00 82 1017.6
20260506082922 13 170 0.0 0.0 0.00 0.00 0.00 82 1017.5
20260506082419 13 171 0.0 1.6 0.00 0.00 0.00 82 1017.6
20260506081914 14 171 0.0 0.0 0.00 0.00 0.00 82 1017.6
20260506081414 14 171 0.0 0.0 0.00 0.00 0.00 82 1017.8
20260506080910 14 171 0.0 0.0 0.00 0.00 0.00 82 1017.8
20260506080407 13 171 0.0 0.0 0.00 0.00 0.00 82 1017.9
20260506073351 14 166 1.6 1.6 0.00 0.00 0.00 80 1017.3
20260506072847 14 174 0.0 0.0 0.00 0.00 0.00 80 1017.6
20260506072345 14 171 0.0 1.6 0.00 0.00 0.00 80 1017.4
20260506071843 14 171 0.0 1.6 0.00 0.00 0.00 80 1017.4
20260506071341 14 170 1.6 1.6 0.00 0.00 0.00 80 1017.3
20260506070837 14 170 0.0 0.0 0.00 0.00 0.00 80 1017.4
20260506070334 14 170 0.0 0.0 0.00 0.00 0.00 80 1017.3
20260506062312 14 203 3.2 3.2 0.00 0.00 0.00 78 1017.0
20260506061808 14 169 0.0 1.6 0.00 0.00 0.00 78 1016.7
20260506061304 14 160 1.6 3.2 0.00 0.00 0.00 79 1017.0
20260506060803 14 176 1.6 1.6 0.00 0.00 0.00 80 1016.8
20260506060301 14 166 1.6 1.6 0.00 0.00 0.00 79 1017.1
20260506051232 15 195 4.8 4.8 0.00 0.00 0.00 78 1016.6
20260506050730 15 167 1.6 1.6 0.00 0.00 0.00 77 1016.4
20260506050227 15 172 0.0 1.6 0.00 0.00 0.00 76 1016.4
20260506044718 15 174 0.0 0.0 0.00 0.00 0.00 75 1016.4
20260506044215 15 172 0.0 0.0 0.00 0.00 0.00 74 1016.5
20260506043712 15 170 1.6 3.2 0.00 0.00 0.00 74 1016.1
20260506043210 15 173 0.0 0.0 0.00 0.00 0.00 74 1016.3
20260506042709 15 172 0.0 0.0 0.00 0.00 0.00 74 1016.0
20260506042206 15 171 0.0 0.0 0.00 0.00 0.00 74 1016.1
20260506041705 15 173 0.0 0.0 0.00 0.00 0.00 74 1016.2
20260506041201 15 172 0.0 0.0 0.00 0.00 0.00 74 1015.9
20260506040659 15 172 0.0 1.6 0.00 0.00 0.00 74 1015.9
20260506040155 15 177 1.6 1.6 0.00 0.00 0.00 74 1015.9
20260506035652 15 174 1.6 1.6 0.00 0.00 0.00 74 1015.8
20260506035149 15 172 0.0 0.0 0.00 0.00 0.00 74 1015.8
20260506034646 15 217 3.2 3.2 0.00 0.00 0.00 73 1015.5
20260506034143 15 171 0.0 1.6 0.00 0.00 0.00 73 1015.5
20260506033640 15 177 1.6 1.6 0.00 0.00 0.00 73 1015.5
20260506033137 15 153 1.6 1.6 0.00 0.00 0.00 73 1015.3
20260506032634 15 175 3.2 3.2 0.00 0.00 0.00 74 1015.3
20260506032131 15 165 1.6 1.6 0.00 0.00 0.00 74 1015.3
20260506031628 15 174 3.2 3.2 0.00 0.00 0.00 74 1015.2
20260506031125 15 209 3.2 3.2 0.00 0.00 0.00 74 1015.3
20260506030624 15 170 0.0 1.6 0.00 0.00 0.00 74 1015.3
20260506030121 15 166 1.6 1.6 0.00 0.00 0.00 74 1015.0
20260506025617 15 172 0.0 0.0 0.00 0.00 0.00 75 1014.9
20260506025113 15 173 1.6 3.2 0.00 0.00 0.00 74 1015.0
20260506024611 15 223 1.6 3.2 0.00 0.00 0.00 74 1014.8
20260506024107 15 174 4.8 8.0 0.00 0.00 0.00 74 1014.6
20260506023603 15 298 1.6 3.2 0.00 0.00 0.00 74 1015.1
20260506023101 16 180 1.6 3.2 0.00 0.00 0.00 74 1014.7
20260506022558 16 222 1.6 3.2 0.00 0.00 0.00 74 1014.6
20260506022055 16 179 1.6 1.6 0.00 0.00 0.00 73 1014.6
20260506021553 16 190 1.6 3.2 0.00 0.00 0.00 73 1014.6
20260506021050 16 170 0.0 0.0 0.00 0.00 0.00 73 1014.6
20260506020547 16 171 0.0 0.0 0.00 0.00 0.00 72 1014.6
20260506020045 16 171 0.0 0.0 0.00 0.00 0.00 72 1014.7